Weather History for Grand Forks AFB, ND

Change the Weather History Date:

Thursday, December 19, 2013

  Actual Average Record
Temperature  
Mean Temperature -5 °F -  
Max Temperature 0 °F 18 °F 44 °F (2006)
Min Temperature -11 °F 4 °F -16 °F (2000)
Degree Days  
Heating Degree Days 70    
Moisture  
Dew Point -10 °F    
Average Humidity 77    
Maximum Humidity 85    
Minimum Humidity 71    
Precipitation  
Precipitation 0.00 in - - ()
Sea Level Pressure  
Sea Level Pressure 30.22 in    
Wind  
Wind Speed 14 mph (North)    
Max Wind Speed 22 mph    
Max Gust Speed 33 mph    
Visibility 9 miles    
Events Snow    
Averages and records for this station are not official NWS values.
T = Trace of Precipitation, MM = Missing Value Source: NWS Daily Summary

Daily Weather History Graph

Daily Weather History Graph

Search for Another Location

Airport:

Trip Planner

Search our weather history database for the weather conditions in past years. The results will help you decide how hot, cold, wet, or windy it might be!

Date:

Astronomy

Dec. 19, 2013 Rise Set
Actual Time 8:15 AM CST 4:38 PM CST
Civil Twilight 7:39 AM CST 5:14 PM CST
Nautical Twilight 6:59 AM CST 5:54 PM CST
Astronomical Twilight 6:21 AM CST 6:32 PM CST
Moon 7:14 PM CST (12/19) 9:26 AM CST (12/19)
Length of Visible Light 9h 35m
Length of Day
8h 22m
Waning Gibbous, 95% of the Moon is Illuminated
Dec 19
Waning Gibbous
Dec 25
Last Quarter
Jan 1
New
Jan 7
First Quarter
Jan 15
Full

Hourly Weather History & Observations

Time (CST) Temp. Windchill Dew Point Humidity Pressure Visibility Wind Dir Wind Speed Gust Speed Precip Events Conditions
12:18 AM -2.2 °F -22.9 °F -7.6 °F 78% 30.08 in 10.0 mi North 16.1 mph 25.3 mph N/A   Overcast
12:38 AM -2.2 °F -25.2 °F -7.6 °F 78% 30.07 in 9.0 mi North 20.7 mph 26.5 mph N/A Snow Light Snow
12:43 AM -2.2 °F -25.7 °F -7.6 °F 78% 30.07 in 8.0 mi NNE 21.9 mph 33.4 mph N/A Snow Light Snow
12:48 AM -2.2 °F -23.5 °F -7.6 °F 78% 30.08 in 9.0 mi NNE 17.3 mph 33.4 mph N/A Snow Light Snow
12:51 AM -2.2 °F -23.5 °F -7.6 °F 78% 30.08 in 10.0 mi NNE 17.3 mph 26.5 mph N/A   Overcast
12:57 AM -2.2 °F -22.2 °F -7.6 °F 78% 30.09 in 10.0 mi North 15.0 mph - N/A Snow Light Snow
12:58 AM -2.4 °F -23.1 °F -8.1 °F 76% 30.17 in 9.0 mi North 16.1 mph - 0.00 in Snow Light Snow
1:03 AM -2.2 °F -22.9 °F -7.6 °F 78% 30.09 in 7.0 mi North 16.1 mph - N/A Snow Light Snow
1:17 AM -2.2 °F -25.7 °F -7.6 °F 78% 30.10 in 9.0 mi North 21.9 mph - N/A   Overcast
1:19 AM -2.2 °F -24.1 °F -7.6 °F 78% 30.10 in 7.0 mi North 18.4 mph - N/A Snow Light Snow
1:34 AM -2.2 °F -22.2 °F -7.6 °F 78% 30.11 in 4.0 mi North 15.0 mph - N/A Snow Light Snow
1:39 AM -2.2 °F -25.2 °F -7.6 °F 78% 30.11 in 4.0 mi North 20.7 mph 24.2 mph N/A Snow Light Snow
1:44 AM -4.0 °F -26.4 °F -9.4 °F 78% 30.13 in 6.0 mi North 18.4 mph 24.2 mph N/A   Light Freezing Rain
1:45 AM -4.0 °F -25.8 °F -9.4 °F 78% 30.13 in 8.0 mi North 17.3 mph 24.2 mph N/A   Overcast
1:50 AM -4.0 °F -24.5 °F -9.4 °F 78% 30.14 in 10.0 mi North 15.0 mph - N/A   Overcast
1:58 AM -3.5 °F -23.8 °F -9.2 °F 76% 30.22 in 10.0 mi North 15.0 mph - 0.00 in   Overcast
2:08 AM -4.0 °F -23.0 °F -9.4 °F 78% 30.15 in 10.0 mi North 12.7 mph - N/A   Overcast
2:13 AM -4.0 °F -23.0 °F -9.4 °F 78% 30.15 in 7.0 mi NNE 12.7 mph - N/A   Overcast
2:17 AM -4.0 °F -23.0 °F -9.4 °F 78% 30.15 in 4.0 mi North 12.7 mph - N/A Snow Light Snow
2:22 AM -4.0 °F -24.5 °F -9.4 °F 78% 30.16 in 4.0 mi North 15.0 mph - N/A Snow Light Snow
2:27 AM -4.0 °F -25.8 °F -9.4 °F 78% 30.16 in 8.0 mi North 17.3 mph - N/A   Overcast
2:32 AM -4.0 °F -24.5 °F -9.4 °F 78% 30.16 in 10.0 mi North 15.0 mph - N/A   Overcast
2:52 AM -4.0 °F -23.7 °F -9.4 °F 78% 30.16 in 9.0 mi North 13.8 mph - N/A   Overcast
2:56 AM -4.0 °F -23.0 °F -9.4 °F 78% 30.17 in 5.0 mi North 12.7 mph - N/A Snow Light Snow
2:58 AM -4.0 °F -22.1 °F -9.8 °F 76% 30.25 in 5.0 mi North 11.5 mph - 0.00 in Snow Light Snow
3:07 AM -4.0 °F -23.7 °F -9.4 °F 78% 30.18 in 6.0 mi North 13.8 mph 20.7 mph N/A   Haze
3:09 AM -4.0 °F -24.5 °F -9.4 °F 78% 30.18 in 5.0 mi North 15.0 mph 20.7 mph N/A Snow Light Snow
3:14 AM -4.0 °F -24.5 °F -9.4 °F 78% 30.18 in 4.0 mi North 15.0 mph - N/A Snow Light Snow
3:19 AM -4.0 °F -24.5 °F -9.4 °F 78% 30.18 in 5.0 mi North 15.0 mph - N/A   Haze
3:29 AM -4.0 °F -23.7 °F -9.4 °F 78% 30.18 in 9.0 mi North 13.8 mph - N/A   Overcast
3:34 AM -4.0 °F -23.7 °F -9.4 °F 78% 30.18 in 10.0 mi North 13.8 mph - N/A   Overcast
3:39 AM -4.0 °F -21.2 °F -9.4 °F 78% 30.19 in 9.0 mi North 10.4 mph - N/A   Overcast
3:54 AM -4.0 °F -24.5 °F -11.2 °F 71% 30.19 in 10.0 mi North 15.0 mph - N/A   Overcast
3:58 AM -4.4 °F -24.9 °F -10.7 °F 74% 30.28 in 10.0 mi North 15.0 mph - 0.00 in   Overcast
4:03 AM -4.0 °F -24.5 °F -11.2 °F 71% 30.20 in 10.0 mi NNE 15.0 mph - N/A   Overcast
4:13 AM -4.0 °F -23.0 °F -11.2 °F 71% 30.20 in 10.0 mi North 12.7 mph - N/A   Overcast
4:33 AM -5.8 °F -25.2 °F -11.2 °F 77% 30.20 in 10.0 mi North 12.7 mph - N/A   Overcast
4:38 AM -5.8 °F -24.4 °F -11.2 °F 77% 30.20 in 10.0 mi North 11.5 mph - N/A   Overcast
4:43 AM -5.8 °F -24.4 °F -11.2 °F 77% 30.20 in 10.0 mi North 11.5 mph - N/A   Overcast
4:47 AM -5.8 °F -24.4 °F -11.2 °F 77% 30.20 in 10.0 mi NNE 11.5 mph - N/A Snow Light Snow
4:52 AM -5.8 °F -23.4 °F -11.2 °F 77% 30.21 in 8.0 mi North 10.4 mph - N/A Snow Light Snow
4:58 AM -5.3 °F -26.8 °F -10.7 °F 77% 30.29 in 7.0 mi North 16.1 mph - 0.00 in Snow Light Snow
5:08 AM -5.8 °F -26.8 °F -11.2 °F 77% 30.21 in 10.0 mi NNE 15.0 mph - N/A   Overcast
5:18 AM -5.8 °F -25.2 °F -11.2 °F 77% 30.21 in 10.0 mi NNE 12.7 mph - N/A Snow Light Snow
5:28 AM -5.8 °F -26.8 °F -11.2 °F 77% 30.20 in 10.0 mi NNE 15.0 mph - N/A   Overcast
5:33 AM -5.8 °F -27.5 °F -11.2 °F 77% 30.20 in 10.0 mi NNE 16.1 mph - N/A   Overcast
5:38 AM -5.8 °F -26.0 °F -11.2 °F 77% 30.20 in 10.0 mi NNE 13.8 mph - N/A   Overcast
5:48 AM -5.8 °F -26.0 °F -11.2 °F 77% 30.20 in 10.0 mi NNE 13.8 mph - N/A   Overcast
5:53 AM -5.8 °F -26.8 °F -11.2 °F 77% 30.20 in 10.0 mi NNE 15.0 mph - N/A   Overcast
5:58 AM -6.0 °F -25.5 °F -11.7 °F 76% 30.30 in 10.0 mi NNE 12.7 mph - 0.00 in   Overcast
6:13 AM -5.8 °F -26.0 °F -11.2 °F 77% 30.21 in 10.0 mi NNE 13.8 mph - N/A   Overcast
6:18 AM -5.8 °F -24.4 °F -11.2 °F 77% 30.21 in 8.0 mi NNE 11.5 mph - N/A   Overcast
6:28 AM -5.8 °F -23.4 °F -11.2 °F 77% 30.21 in 5.0 mi NNE 10.4 mph - N/A   Haze
6:33 AM -5.8 °F -26.0 °F -11.2 °F 77% 30.21 in 7.0 mi NNE 13.8 mph 18.4 mph N/A   Overcast
6:38 AM -5.8 °F -26.0 °F -13.0 °F 71% 30.21 in 10.0 mi NNE 13.8 mph - N/A   Overcast
6:48 AM -7.6 °F -29.1 °F -13.0 °F 77% 30.20 in 10.0 mi NNE 15.0 mph - N/A   Overcast
6:58 AM -6.9 °F -28.9 °F -12.8 °F 75% 30.30 in 10.0 mi NNE 16.1 mph - N/A   Overcast
7:14 AM -7.6 °F -27.5 °F -13.0 °F 77% 30.20 in 10.0 mi NNE 12.7 mph - N/A Snow Light Snow
7:19 AM -7.6 °F -28.3 °F -13.0 °F 77% 30.20 in 8.0 mi NNE 13.8 mph - N/A Snow Light Snow
7:29 AM -7.6 °F -28.3 °F -13.0 °F 77% 30.20 in 9.0 mi NNE 13.8 mph - N/A Snow Light Snow
7:30 AM -7.6 °F -28.3 °F -13.0 °F 77% 30.20 in 10.0 mi NNE 13.8 mph - N/A   Overcast
7:35 AM -7.6 °F -28.3 °F -13.0 °F 77% 30.21 in 10.0 mi North 13.8 mph - N/A   Overcast
7:50 AM -7.6 °F -28.3 °F -13.0 °F 77% 30.20 in 10.0 mi NNE 13.8 mph - N/A   Overcast
7:58 AM -7.6 °F -30.5 °F -13.4 °F 76% 30.30 in 10.0 mi NNE 17.3 mph - 0.00 in   Overcast
8:33 AM -7.6 °F -26.6 °F -13.0 °F 77% 30.24 in 10.0 mi North 11.5 mph - N/A   Overcast
8:43 AM -7.6 °F -25.7 °F -13.0 °F 77% 30.25 in 10.0 mi North 10.4 mph - N/A   Overcast
8:58 AM -6.7 °F -25.5 °F -13.0 °F 74% 30.36 in 10.0 mi North 11.5 mph - N/A   Overcast
9:13 AM -5.8 °F -26.0 °F -13.0 °F 71% 30.26 in 10.0 mi North 13.8 mph - N/A   Overcast
9:48 AM -5.8 °F -24.4 °F -13.0 °F 71% 30.29 in 10.0 mi North 11.5 mph - N/A   Mostly Cloudy
9:58 AM -6.0 °F -27.0 °F -12.5 °F 74% 30.39 in 10.0 mi North 15.0 mph - N/A   Scattered Clouds
10:23 AM -5.8 °F -26.8 °F -13.0 °F 71% 30.30 in 10.0 mi North 15.0 mph - N/A   Mostly Cloudy
10:58 AM -5.8 °F -27.5 °F -13.0 °F 71% 30.40 in 10.0 mi North 16.1 mph - N/A   Mostly Cloudy
11:07 AM -5.8 °F -27.5 °F -11.2 °F 77% 30.30 in 10.0 mi North 16.1 mph - N/A   Overcast
11:43 AM -5.8 °F -26.0 °F -11.2 °F 77% 30.29 in 10.0 mi NNE 13.8 mph - N/A   Overcast
11:58 AM -4.7 °F -23.9 °F -11.9 °F 71% 30.32 in 10.0 mi NNE 12.7 mph - N/A   Partly Cloudy
12:58 PM -3.8 °F -19.9 °F -10.8 °F 72% 30.38 in 10.0 mi North 9.2 mph - N/A   Partly Cloudy
1:58 PM -3.3 °F -18.2 °F -10.3 °F 72% 30.35 in 10.0 mi North 8.1 mph - N/A   Overcast
2:58 PM -2.6 °F -16.0 °F -9.8 °F 71% 30.36 in 10.0 mi North 6.9 mph - N/A   Overcast
2:59 PM -2.2 °F -15.6 °F -9.4 °F 71% 30.26 in 10.0 mi North 6.9 mph - N/A Snow Light Snow
3:58 PM -2.2 °F -18.0 °F -8.5 °F 75% 30.35 in 10.0 mi North 9.2 mph - 0.00 in   Mostly Cloudy
4:19 PM -2.2 °F -16.8 °F -7.6 °F 78% 30.25 in 10.0 mi North 8.1 mph - N/A   Light Freezing Rain
4:23 PM -2.2 °F -15.6 °F -7.6 °F 78% 30.25 in 10.0 mi NNE 6.9 mph - N/A   Partly Cloudy
4:58 PM -1.8 °F -15.2 °F -8.1 °F 75% 30.35 in 10.0 mi North 6.9 mph - 0.00 in   Clear
5:16 PM -2.2 °F -14.2 °F -7.6 °F 78% 30.25 in 10.0 mi North 5.8 mph - N/A Snow Light Snow
5:26 PM -2.2 °F -14.2 °F -7.6 °F 78% 30.25 in 10.0 mi North 5.8 mph - N/A Snow Light Snow
5:58 PM -1.3 °F -9.3 °F -6.5 °F 79% 30.36 in 10.0 mi NNW 3.5 mph - 0.00 in Snow Light Snow
6:03 PM -2.2 °F -10.4 °F -5.8 °F 85% 30.26 in 8.0 mi NW 3.5 mph - N/A Snow Light Snow
6:58 PM -0.8 °F - -5.8 °F 79% 30.35 in 5.0 mi Calm Calm - 0.00 in Snow Light Snow
7:28 PM -0.4 °F - -5.8 °F 78% 30.24 in 6.0 mi North 1.2 mph - N/A Snow Light Snow
7:33 PM -0.4 °F - -5.8 °F 78% 30.24 in 4.0 mi NNE 1.2 mph - N/A Snow Light Snow
7:58 PM -0.4 °F - -5.1 °F 81% 30.33 in 4.0 mi Calm Calm - 0.00 in Snow Light Snow
8:03 PM -0.4 °F - -4.0 °F 85% 30.22 in 4.0 mi Calm Calm - N/A   Haze
8:08 PM -0.4 °F - -4.0 °F 85% 30.22 in 4.0 mi SE 1.2 mph - N/A   Haze
8:23 PM -0.4 °F - -4.0 °F 85% 30.21 in 6.0 mi South 2.3 mph - N/A   Haze
8:33 PM -0.4 °F - -5.8 °F 78% 30.20 in 10.0 mi South 2.3 mph - N/A   Mostly Cloudy
8:38 PM -0.4 °F - -5.8 °F 78% 30.20 in 10.0 mi South 2.3 mph - N/A   Scattered Clouds
8:52 PM -0.4 °F - -5.8 °F 78% 30.20 in 10.0 mi Calm Calm - N/A   Partly Cloudy
8:58 PM -0.9 °F - -5.1 °F 83% 30.30 in 10.0 mi Calm Calm - 0.00 in   Partly Cloudy
9:53 PM -7.6 °F - -11.2 °F 84% 30.20 in 10.0 mi SSW 1.2 mph - N/A   Clear
9:59 PM -7.2 °F - -12.1 °F 79% 30.30 in 10.0 mi South 2.3 mph - N/A   Clear
10:05 PM -5.8 °F - -11.2 °F 77% 30.20 in 10.0 mi Calm Calm - N/A   Partly Cloudy
10:59 PM -10.1 °F -19.4 °F -15.2 °F 78% 30.30 in 10.0 mi WSW 3.5 mph - N/A   Clear
11:58 PM -11.4 °F -20.8 °F -16.6 °F 78% 30.21 in 10.0 mi WSW 3.5 mph - N/A   Clear